Weather History for KTCM - January, 2014

Change the Weather History Date:

Wednesday, January 1, 2014

  Actual Average Record
Temperature  
Mean Temperature 40 °F -  
Max Temperature 42 °F 44 °F 55 °F (2012)
Min Temperature 38 °F 32 °F 6 °F (1979)
Degree Days  
Heating Degree Days 25    
Moisture  
Dew Point 41 °F    
Average Humidity 100    
Maximum Humidity 100    
Minimum Humidity 100    
Precipitation  
Precipitation 0.01 in - - ()
Sea Level Pressure  
Sea Level Pressure 30.37 in    
Wind  
Wind Speed 2 mph (NE)    
Max Wind Speed 7 mph    
Max Gust Speed -    
Visibility 3 miles    
Events Fog , Rain    
Averages and records for this station are not official NWS values.
T = Trace of Precipitation, MM = Missing Value Source: NWS Daily Summary

Daily Weather History Graph

Daily Weather History Graph

Search for Another Location

Airport or City:

Trip Planner

Search our weather history database for the weather conditions in past years. The results will help you decide how hot, cold, wet, or windy it might be!

Date:

Astronomy

Jan. 01, 2014 Rise Set
Actual Time 7:56 AM PST 4:31 PM PST
Civil Twilight 7:20 AM PST 5:06 PM PST
Nautical Twilight 6:42 AM PST 5:45 PM PST
Astronomical Twilight 6:05 AM PST 6:22 PM PST
Moon 7:46 AM PST (1/1) 5:28 PM PST (1/1)
Length of Visible Light 9h 45m
Length of Day
8h 34m
New Moon, 0% of the Moon is Illuminated
Jan 1
New Moon
Jan 7
First Quarter
Jan 15
Full
Jan 23
Last Quarter
Jan 30
New

Hourly Weather History & Observations

Time (PST) Temp. Windchill Dew Point Humidity Pressure Visibility Wind Dir Wind Speed Gust Speed Precip Events Conditions
12:03 AM 41.0 °F - 41.0 °F 100% 30.38 in 0.5 mi SSW 2.3 mph - N/A Fog Fog
12:08 AM 41.0 °F - 41.0 °F 100% 30.38 in 0.8 mi Calm Calm - N/A   Mist
12:13 AM 41.0 °F - 41.0 °F 100% 30.38 in 0.8 mi Calm Calm - N/A   Mist
12:23 AM 41.0 °F - 41.0 °F 100% 30.38 in 0.8 mi Calm Calm - N/A   Mist
12:28 AM 41.0 °F - 41.0 °F 100% 30.38 in 0.5 mi NW 2.3 mph - N/A Fog Fog
12:58 AM 42.3 °F 40.5 °F 42.3 °F 100% 30.41 in 0.5 mi North 3.5 mph - N/A Fog Fog
1:03 AM 42.8 °F 41.1 °F 42.8 °F 100% 30.39 in 0.5 mi NNE 3.5 mph - N/A Fog Fog
1:08 AM 42.8 °F - 42.8 °F 100% 30.39 in 0.8 mi NNE 2.3 mph - N/A   Overcast
1:13 AM 42.8 °F - 42.8 °F 100% 30.39 in 1.2 mi NNE 1.2 mph - N/A   Overcast
1:18 AM 42.8 °F - 42.8 °F 100% 30.39 in 1.8 mi East 2.3 mph - N/A   Overcast
1:23 AM 42.8 °F 41.1 °F 42.8 °F 100% 30.39 in 0.8 mi ENE 3.5 mph - N/A   Overcast
1:28 AM 42.8 °F 40.1 °F 42.8 °F 100% 30.39 in 0.5 mi NE 4.6 mph - N/A Fog Fog
1:33 AM 42.8 °F 40.1 °F 42.8 °F 100% 30.39 in 0.8 mi East 4.6 mph - N/A   Mostly Cloudy
1:38 AM 42.8 °F 40.1 °F 42.8 °F 100% 30.39 in 0.8 mi ENE 4.6 mph - N/A   Mist
1:43 AM 42.8 °F 41.1 °F 42.8 °F 100% 30.39 in 1.0 mi East 3.5 mph - N/A   Mist
1:53 AM 42.8 °F 40.1 °F 42.8 °F 100% 30.39 in 1.2 mi East 4.6 mph - N/A   Mostly Cloudy
1:58 AM 42.8 °F 40.1 °F 42.8 °F 100% 30.41 in 1.5 mi East 4.6 mph - N/A   Overcast
2:03 AM 42.8 °F 41.1 °F 42.8 °F 100% 30.39 in 1.2 mi East 3.5 mph - N/A   Overcast
2:08 AM 42.8 °F 39.3 °F 42.8 °F 100% 30.39 in 1.0 mi East 5.8 mph - N/A   Mist
2:13 AM 42.8 °F 39.3 °F 42.8 °F 100% 30.39 in 1.2 mi East 5.8 mph - N/A   Overcast
2:18 AM 42.8 °F 40.1 °F 42.8 °F 100% 30.39 in 1.5 mi East 4.6 mph - N/A   Overcast
2:33 AM 42.8 °F 41.1 °F 42.8 °F 100% 30.39 in 1.8 mi East 3.5 mph - N/A   Overcast
2:43 AM 42.8 °F - 42.8 °F 100% 30.40 in 2.0 mi Calm Calm - N/A   Overcast
2:48 AM 42.8 °F - 42.8 °F 100% 30.40 in 3.0 mi NNE 1.2 mph - N/A   Overcast
2:53 AM 42.8 °F - 42.8 °F 100% 30.40 in 3.0 mi North 1.2 mph - N/A   Overcast
2:58 AM 42.3 °F - 42.3 °F 100% 30.42 in 4.0 mi Calm Calm - N/A   Overcast
3:18 AM 42.8 °F - 42.8 °F 100% 30.40 in 2.5 mi NW 2.3 mph - N/A   Overcast
3:23 AM 42.8 °F - 42.8 °F 100% 30.40 in 2.0 mi NNW 2.3 mph - N/A   Overcast
3:28 AM 42.8 °F - 42.8 °F 100% 30.40 in 2.5 mi NNW 2.3 mph - N/A   Overcast
3:38 AM 42.8 °F - 42.8 °F 100% 30.40 in 3.0 mi North 2.3 mph - N/A   Overcast
3:43 AM 42.8 °F - 42.8 °F 100% 30.39 in 2.5 mi North 2.3 mph - N/A   Overcast
3:53 AM 42.8 °F - 42.8 °F 100% 30.39 in 2.0 mi North 1.2 mph - N/A   Overcast
3:58 AM 42.8 °F - 42.8 °F 100% 30.41 in 1.5 mi NNE 2.3 mph - N/A   Overcast
4:03 AM 41.0 °F 39.0 °F 41.0 °F 100% 30.39 in 1.5 mi NE 3.5 mph - N/A   Overcast
4:08 AM 41.0 °F - 41.0 °F 100% 30.39 in 1.5 mi East 2.3 mph - N/A   Overcast
4:13 AM 41.0 °F - 41.0 °F 100% 30.39 in 1.0 mi NE 2.3 mph - N/A   Mist
4:18 AM 41.0 °F 39.0 °F 41.0 °F 100% 30.39 in 0.5 mi NE 3.5 mph - N/A Fog Fog
4:23 AM 41.0 °F 39.0 °F 41.0 °F 100% 30.39 in 0.5 mi ENE 3.5 mph - N/A Fog Fog
4:28 AM 41.0 °F - 41.0 °F 100% 30.39 in 0.2 mi ENE 2.3 mph - N/A Fog Fog
4:33 AM 41.0 °F 39.0 °F 41.0 °F 100% 30.39 in 0.2 mi North 3.5 mph - N/A Fog Fog
4:58 AM 41.4 °F 38.4 °F 41.4 °F 100% 30.41 in 0.2 mi ENE 4.6 mph - N/A Fog Fog
5:03 AM 41.0 °F 36.4 °F 41.0 °F 100% 30.38 in 0.5 mi ENE 6.9 mph - N/A Fog Fog
5:38 AM 41.0 °F - 41.0 °F 100% 30.38 in 0.5 mi ENE 2.3 mph - N/A Fog Fog
5:48 AM 41.0 °F - 41.0 °F 100% 30.38 in 0.5 mi SSW 1.2 mph - N/A Fog Fog
5:58 AM 40.5 °F - 40.5 °F 100% 30.40 in 0.5 mi ESE 1.2 mph - N/A Fog Fog
6:13 AM 41.0 °F - 41.0 °F 100% 30.38 in 0.5 mi Calm Calm - N/A Fog Fog
6:18 AM 41.0 °F - 41.0 °F 100% 30.38 in 0.8 mi Variable 1.2 mph - N/A   Mist
6:23 AM 41.0 °F - 41.0 °F 100% 30.38 in 0.8 mi Calm Calm - N/A   Mist
6:28 AM 41.0 °F - 41.0 °F 100% 30.38 in 1.0 mi NW 1.2 mph - N/A   Mist
6:33 AM 41.0 °F - 41.0 °F 100% 30.38 in 1.5 mi North 1.2 mph - N/A   Overcast
6:43 AM 41.0 °F - 41.0 °F 100% 30.38 in 1.2 mi Calm Calm - N/A   Overcast
6:48 AM 41.0 °F - 41.0 °F 100% 30.38 in 1.0 mi NW 1.2 mph - N/A   Mist
6:58 AM 40.3 °F - 40.3 °F 100% 30.40 in 1.0 mi North 2.3 mph - N/A   Mist
7:03 AM 41.0 °F - 41.0 °F 100% 30.38 in 1.2 mi North 2.3 mph - N/A   Overcast
7:08 AM 39.2 °F - 39.2 °F 100% 30.38 in 1.5 mi Calm Calm - N/A   Overcast
7:13 AM 39.2 °F - 39.2 °F 100% 30.38 in 1.5 mi WSW 2.3 mph - N/A   Overcast
7:18 AM 39.2 °F - 39.2 °F 100% 30.38 in 1.8 mi Calm Calm - N/A   Overcast
7:23 AM 39.2 °F - 39.2 °F 100% 30.38 in 2.0 mi NNW 1.2 mph - N/A   Overcast
7:28 AM 39.2 °F - 39.2 °F 100% 30.38 in 2.0 mi North 2.3 mph - N/A   Overcast
7:33 AM 39.2 °F - 39.2 °F 100% 30.38 in 2.0 mi Calm Calm - N/A   Overcast
7:38 AM 39.2 °F - 39.2 °F 100% 30.38 in 3.0 mi Calm Calm - N/A   Overcast
7:43 AM 39.2 °F - 39.2 °F 100% 30.38 in 4.0 mi East 1.2 mph - N/A   Overcast
7:58 AM 39.2 °F - 39.2 °F 100% 30.40 in 2.0 mi North - - N/A   Overcast
8:03 AM 39.2 °F - 39.2 °F 100% 30.38 in 1.0 mi East 1.2 mph - N/A   Mist
8:13 AM 39.2 °F - 39.2 °F 100% 30.39 in 1.5 mi SSE 2.3 mph - N/A   Overcast
8:18 AM 39.2 °F - 39.2 °F 100% 30.39 in 1.2 mi South 1.2 mph - N/A   Overcast
8:23 AM 39.2 °F - 39.2 °F 100% 30.39 in 0.8 mi ESE 2.3 mph - N/A   Mist
8:28 AM 39.2 °F - 39.2 °F 100% 30.39 in 1.0 mi East 1.2 mph - N/A   Mist
8:33 AM 39.2 °F - 39.2 °F 100% 30.39 in 1.0 mi ESE 2.3 mph - N/A   Mist
8:38 AM 39.2 °F 37.0 °F 39.2 °F 100% 30.39 in 0.8 mi East 3.5 mph - N/A   Mist
8:43 AM 39.2 °F 37.0 °F 39.2 °F 100% 30.39 in 0.8 mi Variable 3.5 mph - N/A   Mist
8:48 AM 39.2 °F 37.0 °F 39.2 °F 100% 30.39 in 0.5 mi East 3.5 mph - N/A Fog Fog
8:58 AM 39.6 °F 37.4 °F 39.6 °F 100% 30.41 in 0.5 mi East 3.5 mph - N/A Fog Fog
9:08 AM 39.2 °F 37.0 °F 39.2 °F 100% 30.39 in 0.5 mi ENE 3.5 mph - N/A Fog Fog
9:13 AM 39.2 °F 37.0 °F 39.2 °F 100% 30.39 in 0.5 mi East 3.5 mph - N/A Fog Fog
9:23 AM 39.2 °F - 39.2 °F 100% 30.39 in 0.5 mi ESE 2.3 mph - N/A Fog Fog
9:33 AM 39.2 °F 35.0 °F 39.2 °F 100% 30.39 in 0.5 mi ENE 5.8 mph - N/A Fog Fog
9:38 AM 39.2 °F 37.0 °F 39.2 °F 100% 30.39 in 0.8 mi ENE 3.5 mph - N/A   Mist
9:48 AM 39.2 °F - 39.2 °F 100% 30.39 in 0.5 mi NE 2.3 mph - N/A Fog Fog
9:58 AM 38.7 °F - 38.7 °F 100% 30.41 in 0.8 mi North 2.3 mph - N/A   Mist
10:03 AM 39.2 °F - 39.2 °F 100% 30.39 in 0.8 mi Calm Calm - N/A   Mist
10:08 AM 39.2 °F - 39.2 °F 100% 30.39 in 1.0 mi North 2.3 mph - N/A   Mist
10:13 AM 39.2 °F - 39.2 °F 100% 30.39 in 1.0 mi NW 1.2 mph - N/A   Mist
10:18 AM 39.2 °F - 39.2 °F 100% 30.39 in 1.0 mi Calm Calm - N/A   Mist
10:23 AM 39.2 °F - 39.2 °F 100% 30.39 in 1.0 mi NE 2.3 mph - N/A   Mist
10:28 AM 39.2 °F - 39.2 °F 100% 30.39 in 0.8 mi Calm Calm - N/A   Mist
10:33 AM 39.2 °F - 39.2 °F 100% 30.39 in 0.5 mi SW 1.2 mph - N/A Fog Fog
10:38 AM 39.2 °F - 39.2 °F 100% 30.39 in 0.2 mi SW 1.2 mph - N/A Fog Fog
10:43 AM 39.2 °F - 39.2 °F 100% 30.39 in 0.2 mi Calm Calm - N/A Fog Fog
10:48 AM 39.2 °F - 39.2 °F 100% 30.39 in 0.2 mi NNE 2.3 mph - N/A Fog Fog
10:53 AM 39.2 °F - 39.2 °F 100% 30.39 in 0.2 mi Calm Calm - N/A Fog Fog
10:58 AM 39.2 °F - 39.2 °F 100% 30.41 in 0.2 mi Calm Calm - N/A Fog Fog
11:03 AM 39.2 °F - 39.2 °F 100% 30.39 in 0.5 mi Variable 1.2 mph - N/A Fog Fog
11:13 AM 39.2 °F - 39.2 °F 100% 30.38 in 0.5 mi Calm Calm - N/A Fog Fog
11:28 AM 39.2 °F - 39.2 °F 100% 30.37 in 0.8 mi Variable 1.2 mph - N/A   Mist
11:38 AM 39.2 °F 35.9 °F 39.2 °F 100% 30.37 in 0.8 mi East 4.6 mph - N/A   Mist
11:43 AM 39.2 °F - 39.2 °F 100% 30.37 in 1.0 mi Variable 2.3 mph - N/A   Mist
11:53 AM 39.2 °F 35.9 °F 39.2 °F 100% 30.36 in 0.8 mi ESE 4.6 mph - N/A   Mist
11:58 AM 39.9 °F 36.7 °F 39.9 °F 100% 30.38 in 1.0 mi SE 4.6 mph - N/A   Mist
12:03 PM 39.2 °F 35.9 °F 39.2 °F 100% 30.36 in 2.0 mi SE 4.6 mph - N/A   Overcast
12:08 PM 39.2 °F 37.0 °F 39.2 °F 100% 30.36 in 3.0 mi SSE 3.5 mph - N/A   Overcast
12:56 PM 39.9 °F - 39.9 °F 100% 30.37 in 5.0 mi South 2.3 mph - N/A   Overcast
1:58 PM 41.0 °F - 41.0 °F 100% 30.35 in 10.0 mi Calm Calm - N/A   Overcast
2:23 PM 41.0 °F 39.0 °F 41.0 °F 100% 30.32 in 10.0 mi ENE 3.5 mph - N/A   Overcast
2:58 PM 41.2 °F 39.2 °F 41.2 °F 100% 30.35 in 10.0 mi North 3.5 mph - N/A   Overcast
3:03 PM 41.0 °F 39.0 °F 41.0 °F 100% 30.34 in 10.0 mi North 3.5 mph - N/A   Overcast
3:13 PM 41.0 °F - 41.0 °F 100% 30.33 in 10.0 mi NNW 2.3 mph - N/A   Overcast
3:23 PM 41.0 °F - 41.0 °F 100% 30.34 in 9.0 mi NNW 2.3 mph - N/A   Overcast
3:58 PM 41.7 °F - 41.7 °F 100% 30.36 in 5.0 mi North 2.3 mph - N/A   Overcast
4:03 PM 41.0 °F - 41.0 °F 100% 30.35 in 5.0 mi North 1.2 mph - N/A   Overcast
4:20 PM 41.0 °F 38.0 °F 41.0 °F 100% 30.35 in 6.0 mi ENE 4.6 mph - N/A Rain Light Rain
4:50 PM 41.0 °F 39.0 °F 41.0 °F 100% 30.35 in 7.0 mi ENE 3.5 mph - N/A   Overcast
4:57 PM 41.0 °F 37.1 °F 41.0 °F 100% 30.35 in 6.0 mi East 5.8 mph - N/A Rain Light Rain
4:58 PM 41.0 °F 37.1 °F 41.0 °F 100% 30.37 in 6.0 mi East 5.8 mph - 0.00 in Rain Light Rain
5:03 PM 41.0 °F 37.1 °F 41.0 °F 100% 30.35 in 6.0 mi East 5.8 mph - N/A Rain Light Rain
5:18 PM 41.0 °F 36.4 °F 41.0 °F 100% 30.35 in 6.0 mi East 6.9 mph - N/A Rain Light Rain
5:58 PM 41.2 °F 39.2 °F 41.2 °F 100% 30.37 in 7.0 mi ENE 3.5 mph - 0.01 in Rain Light Rain
6:33 PM 41.0 °F 38.0 °F 41.0 °F 100% 30.34 in 9.0 mi ENE 4.6 mph - N/A   Mostly Cloudy
6:41 PM 41.0 °F 37.1 °F 41.0 °F 100% 30.33 in 8.0 mi ENE 5.8 mph - N/A Rain Light Rain
6:50 PM 41.0 °F 36.4 °F 41.0 °F 100% 30.32 in 8.0 mi ENE 6.9 mph - N/A   Mostly Cloudy
6:58 PM 41.0 °F 38.0 °F 41.0 °F 100% 30.34 in 8.0 mi ENE 4.6 mph - 0.00 in   Mostly Cloudy
7:03 PM 41.0 °F 37.1 °F 41.0 °F 100% 30.32 in 8.0 mi ENE 5.8 mph - N/A   Mostly Cloudy
7:08 PM 41.0 °F 38.0 °F 41.0 °F 100% 30.31 in 8.0 mi ENE 4.6 mph - N/A   Mostly Cloudy
7:58 PM 41.2 °F - 41.2 °F 100% 30.31 in 9.0 mi NNW 2.3 mph - N/A   Overcast
8:17 PM 41.0 °F 38.0 °F 41.0 °F 100% 30.29 in 9.0 mi NW 4.6 mph - N/A   Overcast
8:58 PM 41.0 °F 39.0 °F 41.0 °F 100% 30.30 in 7.0 mi WNW 3.5 mph - N/A   Overcast
9:13 PM 41.0 °F 39.0 °F 41.0 °F 100% 30.27 in 7.0 mi WNW 3.5 mph - N/A   Overcast
9:28 PM 41.0 °F 39.0 °F 41.0 °F 100% 30.27 in 7.0 mi NW 3.5 mph - N/A   Overcast
9:58 PM 41.7 °F - 41.7 °F 100% 30.29 in 7.0 mi Calm Calm - N/A   Overcast
10:18 PM 41.0 °F - 41.0 °F 100% 30.27 in 7.0 mi Calm Calm - N/A   Overcast
10:46 PM 41.0 °F 39.0 °F 41.0 °F 100% 30.27 in 4.0 mi SE 3.5 mph - N/A   Overcast
10:56 PM 41.0 °F - 41.0 °F 100% 30.27 in 4.0 mi SE 2.3 mph - N/A   Overcast
10:58 PM 41.0 °F 39.0 °F 41.0 °F 100% 30.29 in 4.0 mi SE 3.5 mph - 0.00 in   Overcast
11:58 PM 41.0 °F 39.0 °F 41.0 °F 100% 30.28 in 5.0 mi SW 3.5 mph - N/A   Overcast